Starlink 30981

operational
NORAD ID: 58494 Int'l Des: 2023-186 Owner: SPXS Country: US Constellation: starlink
LEOCIRCULAR

Starlink 30981について

説明を読み込み中...

リアルタイム位置

3D地球を読み込み中...

次回通過

高度履歴

Altitude vs Time

uPlot chart will show altitude changes over time

軌道要素

1 58494U 23186X 25352.17324542 .00000334 00000-0 39782-4 0 9998
2 58494 43.0027 150.0121 0001241 269.3163 90.7537 15.02538379113588
Epoch: Dec 18, 2025 • Age: 10 hours

現在のステータス

高度 560.2 km
速度 7.59 km/s
衛星直下点 29.78°N, 111.07°W
打ち上げ日 Dec 3, 2023
運用期間 2 years
タイプ internet

技術仕様

分類 Payload
質量 730.00 kg
乾燥質量 700.00 kg
総質量 730.00 kg
長さ 0.30 m
直径 4.10 m
スパン 29.00 m
形状 Box + pan
製造者 SPXS
バスタイプ Starlink V2M
フェーズステータス In Orbit
所有者/国 SPXS/US

大規模コンステレーション

Loading constellations...